KF5CFW Weather Reports


Display with metric or nautical units.
time (UTC)temp
F
wind
direction
speed
MPH
gust
MPH
rain 1hr
in
rain 24hr
in
rain mn
in
humidity
%
barometer
mb
20260508104616 60 208 0.0 0.0 0.00 0.00 0.00 1 1014.2
20260508103046 60 208 0.0 0.0 0.00 0.00 0.00 1 1014.0
20260508101541 60 208 0.0 0.0 0.00 0.00 0.00 1 1013.2
20260508100034 60 208 0.0 0.0 0.00 0.00 0.00 1 1013.4
20260508094530 60 208 0.0 0.0 0.00 0.00 0.00 1 1013.6
20260508093026 60 208 0.0 0.0 0.00 0.00 0.00 1 1013.8
20260508091521 60 208 0.0 0.0 0.00 0.00 0.00 1 1013.6
20260508090018 60 208 0.0 0.0 0.00 0.00 0.00 1 1013.3
20260508084512 61 208 0.0 0.0 0.00 0.00 0.00 1 1013.7
20260508083008 60 208 0.0 0.0 0.00 0.00 0.00 1 1013.4
20260508081504 61 208 0.0 0.0 0.00 0.00 0.00 1 1013.9
20260508080110 61 208 0.0 0.0 0.00 0.00 0.00 1 1014.4
20260508074556 61 209 0.0 0.0 0.00 0.00 0.00 1 1014.8
20260508073052 61 209 0.0 0.0 0.00 0.00 0.00 1 1014.8
20260508071549 61 208 0.0 0.0 0.00 0.00 0.00 1 1014.9
20260508070128 62 208 0.0 0.0 0.00 0.00 0.00 15 1014.7
20260508064540 62 208 0.0 0.0 0.00 0.00 0.00 27 1014.6
20260508063037 62 208 0.0 0.0 0.00 0.00 0.00 27 1014.8
20260508061537 61 208 0.0 0.0 0.00 0.00 0.00 29 1014.8
20260508060034 61 208 0.0 0.0 0.00 0.00 0.00 35 1015.1
20260508054532 61 208 0.0 0.0 0.00 0.00 0.00 37 1015.2
20260508053030 62 209 0.0 0.0 0.00 0.00 0.00 39 1015.2
20260508051530 62 208 0.0 0.0 0.00 0.00 0.00 44 1015.3
20260508050024 62 209 0.0 0.0 0.00 0.00 0.00 48 1015.1
20260508044521 62 208 0.0 0.0 0.00 0.00 0.00 50 1015.2
20260508043025 62 209 0.0 0.0 0.00 0.00 0.00 51 1015.1
20260508041512 62 208 0.0 0.0 0.00 0.00 0.00 53 1015.2
20260508040017 62 208 0.0 0.0 0.00 0.00 0.00 54 1015.1
20260508034510 62 208 0.0 0.0 0.00 0.00 0.00 56 1014.8
20260508033058 62 208 0.0 0.0 0.00 0.00 0.00 57 1014.8
20260508031558 62 209 0.0 0.0 0.00 0.00 0.00 59 1014.5
20260508030059 62 208 0.0 0.0 0.00 0.00 0.00 59 1014.5
20260508024556 63 207 0.0 0.0 0.00 0.00 0.00 59 1014.5
20260508023046 63 208 0.0 0.0 0.00 0.00 0.00 59 1014.4
20260508021539 64 208 0.0 0.0 0.00 0.00 0.00 60 1014.4
20260508020035 64 208 0.0 0.0 0.00 0.00 0.00 60 1014.2
20260508014531 64 208 0.0 0.0 0.00 0.00 0.00 60 1014.3
20260508013026 65 208 0.0 0.0 0.00 0.00 0.00 60 1014.2
20260508011522 65 208 0.0 0.0 0.00 0.00 0.00 60 1014.2
20260508010024 66 207 0.0 0.0 0.00 0.00 0.00 60 1014.3
20260508004516 66 208 0.0 0.0 0.00 0.00 0.00 60 1014.3
20260508003011 67 208 0.0 0.0 0.00 0.00 0.00 59 1014.2
20260508001507 67 208 0.0 0.0 0.00 0.00 0.00 59 1014.4
20260508000003 68 208 0.0 0.0 0.00 0.00 0.00 58 1014.5
20260507234559 68 200 0.0 1.0 0.00 0.00 0.00 58 1014.6
20260507233054 69 246 0.0 1.0 0.00 0.00 0.00 58 1014.5
20260507231550 69 205 0.0 1.0 0.00 0.00 0.00 58 1014.5
20260507230046 69 136 0.0 0.0 0.00 0.00 0.00 57 1014.6
20260507224541 69 136 0.0 0.0 0.00 0.01 0.00 57 1014.7
20260507223037 70 96 0.0 1.0 0.00 0.01 0.00 57 1014.8
20260507221533 70 172 0.0 0.0 0.00 0.01 0.00 56 1014.8
20260507220028 71 172 0.0 0.0 0.00 0.01 0.00 54 1014.8
20260507214524 71 165 0.0 0.0 0.00 0.01 0.00 56 1014.9
20260507213021 71 165 0.0 0.0 0.00 0.01 0.00 53 1015.1
20260507211515 71 165 0.0 0.0 0.00 0.01 0.00 56 1015.5
20260507210011 71 165 0.0 0.0 0.00 0.01 0.00 55 1015.8
20260507204509 71 165 0.0 0.0 0.00 0.01 0.00 53 1015.7
20260507203002 71 165 0.0 0.0 0.00 0.01 0.00 51 1015.5
20260507201604 71 166 0.0 0.0 0.00 0.01 0.00 52 1015.5
20260507200056 72 155 0.0 0.0 0.00 0.01 0.00 51 1016.0
20260507194558 72 155 0.0 1.0 0.00 0.01 0.00 52 1016.2
20260507193045 72 6 0.0 0.0 0.00 0.01 0.00 50 1016.5
20260507191547 72 6 0.0 1.0 0.00 0.01 0.00 50 1016.9
20260507190036 72 13 0.0 2.0 0.00 0.01 0.00 48 1017.0
20260507184536 73 205 0.0 2.0 0.00 0.01 0.00 48 1017.0
20260507183035 73 18 0.0 3.0 0.00 0.01 0.00 47 1017.0
20260507181523 71 351 0.0 2.0 0.00 0.01 0.00 50 1017.2
20260507180022 70 19 0.0 3.0 0.00 0.01 0.00 50 1017.3
20260507174515 70 23 0.0 2.0 0.00 0.01 0.00 51 1017.5
20260507173010 69 13 0.0 1.0 0.00 0.01 0.00 53 1017.8
20260507171506 69 351 0.0 2.0 0.00 0.01 0.00 52 1018.2
20260507170002 69 352 0.0 1.0 0.00 0.01 0.00 53 1018.6
20260507164629 68 27 0.0 0.0 0.00 0.01 0.00 55 1019.2
20260507163053 66 5 0.0 2.0 0.00 0.01 0.00 56 1019.2
20260507161549 66 342 0.0 1.0 0.00 0.01 0.00 56 1019.3
20260507160048 65 354 0.0 1.0 0.00 0.01 0.00 56 1019.2
20260507154540 64 13 0.0 1.0 0.00 0.01 0.00 54 1019.2
20260507153035 63 16 0.0 1.0 0.00 0.01 0.00 53 1019.4
20260507151532 63 16 0.0 1.0 0.00 0.01 0.00 51 1019.5
20260507150027 62 354 0.0 1.0 0.00 0.01 0.00 50 1019.7
20260507144523 61 352 0.0 1.0 0.00 0.01 0.00 41 1019.8
20260507143032 60 8 0.0 1.0 0.00 0.01 0.00 28 1019.9
20260507141513 59 9 0.0 0.0 0.00 0.01 0.00 14 1019.9
20260507140010 58 9 0.0 1.0 0.00 0.01 0.00 1 1019.9
20260507134505 57 11 0.0 1.0 0.00 0.01 0.00 1 1020.1
20260507133110 56 64 0.0 0.0 0.00 0.01 0.00 1 1020.4
20260507131612 55 63 0.0 0.0 0.00 0.01 0.00 1 1020.4
20260507130052 55 63 0.0 0.0 0.00 0.01 0.00 1 1020.3
20260507124548 54 63 0.0 0.0 0.00 0.01 0.00 1 1020.2
20260507123055 54 64 0.0 0.0 0.00 0.01 0.00 1 1019.9
20260507121543 53 63 0.0 0.0 0.00 0.01 0.00 1 1019.9
20260507120035 53 65 0.0 0.0 0.00 0.01 0.00 1 1019.5
20260507114531 53 13 0.0 0.0 0.00 0.01 0.00 1 1020.1
20260507113026 53 13 0.0 0.0 0.00 0.01 0.00 1 1019.6
20260507111522 53 13 0.0 0.0 0.00 0.01 0.00 1 1019.3
20260507110021 53 13 0.0 0.0 0.00 0.01 0.00 1 1019.3